TimeEST,TemperatureF,Dew PointF,Humidity,Sea Level PressureIn,VisibilityMPH,Wind Direction,Wind SpeedMPH,Gust SpeedMPH,PrecipitationIn,Events,Conditions,WindDirDegrees,DateUTC
12:15 AM,27.1,24.6,90,30.33,10.0,Calm,Calm,-,N/A,,Clear,0,2012-11-16 05:15:00
12:35 AM,26.6,23.9,90,30.33,10.0,Calm,Calm,-,N/A,,Clear,0,2012-11-16 05:35:00
12:55 AM,26.8,24.6,92,30.33,10.0,Calm,Calm,-,N/A,,Clear,0,2012-11-16 05:55:00
1:15 AM,26.4,23.9,90,30.33,10.0,Calm,Calm,-,N/A,,Clear,0,2012-11-16 06:15:00
1:35 AM,26.6,24.4,92,30.34,10.0,Calm,Calm,-,N/A,,Clear,0,2012-11-16 06:35:00
1:55 AM,26.1,23.7,91,30.34,10.0,Calm,Calm,-,N/A,,Clear,0,2012-11-16 06:55:00
2:15 AM,24.8,22.6,91,30.34,10.0,Calm,Calm,-,N/A,,Clear,0,2012-11-16 07:15:00
2:35 AM,24.6,22.5,91,30.34,10.0,Calm,Calm,-,N/A,,Clear,0,2012-11-16 07:35:00
2:55 AM,24.8,23.0,93,30.34,10.0,Calm,Calm,-,N/A,,Clear,0,2012-11-16 07:55:00
3:15 AM,24.4,22.5,92,30.34,10.0,Calm,Calm,-,N/A,,Clear,0,2012-11-16 08:15:00
3:35 AM,24.1,22.3,93,30.34,10.0,Calm,Calm,-,N/A,,Clear,0,2012-11-16 08:35:00
3:55 AM,24.4,22.5,92,30.34,10.0,Calm,Calm,-,N/A,,Clear,0,2012-11-16 08:55:00
4:15 AM,23.9,21.9,92,30.34,10.0,Calm,Calm,-,N/A,,Clear,0,2012-11-16 09:15:00
4:35 AM,23.7,21.6,91,30.34,10.0,Calm,Calm,-,N/A,,Clear,0,2012-11-16 09:35:00
4:55 AM,23.5,21.4,91,30.35,10.0,Calm,Calm,-,N/A,,Clear,0,2012-11-16 09:55:00
5:15 AM,23.7,21.6,91,30.36,10.0,Calm,Calm,-,N/A,,Clear,0,2012-11-16 10:15:00
5:35 AM,23.9,21.9,92,30.36,10.0,Calm,Calm,-,N/A,,Clear,0,2012-11-16 10:35:00
5:55 AM,22.8,20.7,91,30.36,10.0,Calm,Calm,-,N/A,,Clear,0,2012-11-16 10:55:00
6:15 AM,23.5,21.2,91,30.37,10.0,Calm,Calm,-,N/A,,Clear,0,2012-11-16 11:15:00
6:35 AM,23.9,21.6,91,30.37,10.0,Calm,Calm,-,N/A,,Clear,0,2012-11-16 11:35:00
6:55 AM,23.9,21.4,90,30.38,10.0,Calm,Calm,-,N/A,,Clear,0,2012-11-16 11:55:00
7:15 AM,23.7,21.2,90,30.39,10.0,Calm,Calm,-,N/A,,Clear,0,2012-11-16 12:15:00
7:35 AM,23.7,21.4,91,30.39,10.0,Calm,Calm,-,N/A,,Clear,0,2012-11-16 12:35:00
7:55 AM,23.9,21.4,90,30.40,10.0,Calm,Calm,-,N/A,,Clear,0,2012-11-16 12:55:00
8:15 AM,24.1,22.1,92,30.40,10.0,Calm,Calm,-,N/A,,Clear,0,2012-11-16 13:15:00
8:35 AM,26.6,24.6,92,30.41,7.0,Calm,Calm,-,N/A,,Clear,0,2012-11-16 13:35:00
8:55 AM,29.5,27.5,92,30.41,7.0,Calm,Calm,-,N/A,,Clear,0,2012-11-16 13:55:00
9:15 AM,32.2,29.3,89,30.41,7.0,Calm,Calm,-,N/A,,Clear,0,2012-11-16 14:15:00
9:35 AM,33.4,30.4,89,30.42,7.0,NE,3.5,-,N/A,,Clear,40,2012-11-16 14:35:00
10:15 AM,37.6,31.6,79,30.42,10.0,East,3.5,-,N/A,,Clear,80,2012-11-16 15:15:00
10:35 AM,40.6,32.0,71,30.42,10.0,East,4.6,-,N/A,,Clear,80,2012-11-16 15:35:00
11:15 AM,42.8,32.0,66,30.42,10.0,ENE,4.6,-,N/A,,Clear,70,2012-11-16 16:15:00
11:35 AM,44.8,32.2,61,30.42,10.0,NNE,8.1,-,N/A,,Clear,20,2012-11-16 16:35:00
11:55 AM,46.0,32.0,58,30.41,10.0,NNE,4.6,-,N/A,,Clear,30,2012-11-16 16:55:00
12:15 PM,46.6,31.6,56,30.41,10.0,NNE,8.1,-,N/A,,Clear,30,2012-11-16 17:15:00
12:35 PM,46.9,31.5,55,30.40,10.0,North,5.8,-,N/A,,Clear,360,2012-11-16 17:35:00
12:55 PM,47.8,31.5,53,30.40,10.0,NE,3.5,-,N/A,,Clear,50,2012-11-16 17:55:00
1:15 PM,48.4,31.3,52,30.40,10.0,NE,4.6,-,N/A,,Clear,50,2012-11-16 18:15:00
1:35 PM,49.3,31.8,51,30.39,10.0,North,3.5,-,N/A,,Clear,360,2012-11-16 18:35:00
1:55 PM,49.5,31.8,51,30.39,10.0,NNW,4.6,-,N/A,,Clear,330,2012-11-16 18:55:00
2:15 PM,50.2,31.3,48,30.39,10.0,Calm,Calm,-,N/A,,Clear,0,2012-11-16 19:15:00
2:35 PM,50.7,29.8,45,30.39,10.0,NNE,4.6,-,N/A,,Clear,30,2012-11-16 19:35:00
2:55 PM,50.9,30.2,45,30.38,10.0,NE,6.9,-,N/A,,Clear,50,2012-11-16 19:55:00
3:15 PM,51.1,29.7,44,30.38,10.0,NNE,3.5,-,N/A,,Clear,30,2012-11-16 20:15:00
3:35 PM,51.1,29.8,44,30.39,10.0,North,6.9,-,N/A,,Clear,360,2012-11-16 20:35:00
3:55 PM,50.9,28.9,43,30.39,10.0,Calm,Calm,-,N/A,,Clear,0,2012-11-16 20:55:00
4:15 PM,50.9,29.5,44,30.39,10.0,North,4.6,-,N/A,,Clear,360,2012-11-16 21:15:00
4:35 PM,50.0,30.2,47,30.39,10.0,North,4.6,-,N/A,,Clear,350,2012-11-16 21:35:00
4:55 PM,49.1,29.7,47,30.40,10.0,NNE,3.5,-,N/A,,Clear,20,2012-11-16 21:55:00
5:15 PM,46.6,29.8,52,30.41,10.0,Calm,Calm,-,N/A,,Clear,0,2012-11-16 22:15:00
5:35 PM,45.3,29.5,54,30.42,10.0,NNE,3.5,-,N/A,,Clear,20,2012-11-16 22:35:00
6:15 PM,40.5,29.3,64,30.42,10.0,Calm,Calm,-,N/A,,Clear,0,2012-11-16 23:15:00
6:35 PM,39.2,29.3,68,30.43,10.0,Calm,Calm,-,N/A,,Clear,0,2012-11-16 23:35:00
6:55 PM,38.5,29.3,70,30.43,10.0,Calm,Calm,-,N/A,,Clear,0,2012-11-16 23:55:00
7:15 PM,36.5,28.9,74,30.43,10.0,Calm,Calm,-,N/A,,Clear,0,2012-11-17 00:15:00
7:35 PM,35.6,28.9,77,30.44,10.0,Calm,Calm,-,N/A,,Clear,0,2012-11-17 00:35:00
7:55 PM,33.3,27.9,81,30.44,10.0,Calm,Calm,-,N/A,,Clear,0,2012-11-17 00:55:00
8:15 PM,32.5,28.2,84,30.44,10.0,Calm,Calm,-,N/A,,Clear,0,2012-11-17 01:15:00
8:35 PM,32.0,28.2,86,30.45,10.0,Calm,Calm,-,N/A,,Clear,0,2012-11-17 01:35:00
8:55 PM,32.0,28.4,87,30.46,10.0,Calm,Calm,-,N/A,,Clear,0,2012-11-17 01:55:00
9:15 PM,32.0,28.0,85,30.46,10.0,Calm,Calm,-,N/A,,Clear,0,2012-11-17 02:15:00
9:35 PM,31.3,27.5,86,30.47,10.0,Calm,Calm,-,N/A,,Clear,0,2012-11-17 02:35:00
9:55 PM,30.6,27.1,87,30.47,10.0,Calm,Calm,-,N/A,,Clear,0,2012-11-17 02:55:00
10:15 PM,30.2,26.6,86,30.47,10.0,Calm,Calm,-,N/A,,Clear,0,2012-11-17 03:15:00
10:35 PM,29.8,26.8,88,30.47,10.0,Calm,Calm,-,N/A,,Clear,0,2012-11-17 03:35:00
10:55 PM,29.8,27.0,89,30.47,10.0,Calm,Calm,-,N/A,,Clear,0,2012-11-17 03:55:00
11:15 PM,28.9,26.4,90,30.47,10.0,Calm,Calm,-,N/A,,Clear,0,2012-11-17 04:15:00
11:35 PM,28.4,25.7,90,30.47,10.0,Calm,Calm,-,N/A,,Clear,0,2012-11-17 04:35:00
11:55 PM,28.2,25.7,90,30.47,10.0,Calm,Calm,-,N/A,,Clear,0,2012-11-17 04:55:00